Погода в Карабай-Шемурше

Россия / Чувашская Республика     54°57′53″N   47°31′11″E
темп.,
°C
ветер,
м/с
пор.,
м/с
влажн.,
%
обл.,
%
осадки,
мм/ч
давл.,
гПа
погр.,
м
13 июня, вс
вс1300:00+15юв3495100 0.0 101081
03:00+14ююв349376 0.0 101065
06:00+18ю368558 0.0 1011235
09:00+22ю46685 0.2 1011808
12:00+23ю68587 1.3 10111393
15:00+23ю686621 1.4 10111173
18:00+21ююз51076100 0.1 1011686
21:00+17ю4119368 0.4 1012246
14 июня, пн
пн1400:00+16ююз4119254 0.0 1012231
03:00+16ююз399336 0.0 1013162
06:00+18юз47884 0.0 1014257
09:00+22юз45702 0.0 1015839
12:00+24юз45625 0.8 10151391
15:00+25юз456143 1.4 10151434
18:00+22з23785 1.3 1015193
21:00+19зюз11854 1.6 101511
15 июня, вт
вт1500:00+17зсз11862 0.0 101511
03:00+16ссз118988 0.0 101411
06:00+19всв128417 0.0 1014143
09:00+23в227014 0.0 1014677
12:00+25всв115961 0.0 10131293
15:00+26в225422 0.0 10121455
18:00+24ю2372100 0.7 101154
21:00+20зюз2281100 1.4 101112
16 июня, ср
ср1600:00+19юз1185100 0.8 101112
03:00+19з118395 0.9 101011
06:00+21ююв118089 0.0 101098
09:00+23з1165100 0.0 1010584
12:00+26с2257100 0.1 10091354
15:00+27ссв135355 0.3 10081612
18:00+20св2285100 3.9 100850
21:00+18ссз399260 6.9 1010245
17 июня, чт
чт1700:00+16ссз6129466 0.9 1011414
03:00+13ссз411920 0.9 1014275
06:00+14ссз48825 0.0 1016306
09:00+18с56610 0.0 1017810
12:00+19с68513 0.0 10181924
15:00+19ссз68493 0.0 10191930
18:00+18ссз48634 0.0 1019484
21:00+15ссв2768100 0.0 1021207